STARLINK-32184, 60942

Orbit data source: Space-Track

STARLINK-32184, 60942 is a payload satellite owned by SpaceX/Seattle (US) in LEO that was launched on Sat, 31 Aug 2024 UTC via an FALCON 9 launch vehicle from the Air Force Western Test Range (AFWTR). Payload-class satellites include a variety of spacecraft equipped with specific instruments for various scientific and technological missions. These include communications satellites like Starlink; space stations such as the ISS; scientific satellites like the Hubble; Earth observation satellites from companies like Planet Labs, Umbra, and HawkEye 360; GPS; miniature CubeSats for education and research; and military/defense satellites.

Loading next visibility...
Identifier
60942, 2024-155U
Orbit
LEO
Country
Flag of USUS
Related business
Manufacturer
SpaceX/Seattle
Mission
Operational Commercial Communications
Bus & Motor
STARLINK V2M, Unknown motor
Mass
730 kg wet, ~700 kg dry
Launch date (UTC)
2024-08-31 (2 years ago)
Launch vehicle
FALCON 9
Launch site
Air Force Western Test Range (AFWTR)
Object type
Payload
Rocket body
Debris
Shape & HBR
Box + 2 Pan, 17.7 m
Radar Cross Section
33.884 m², Large (>1 m²)

Expand to show TLE details & history
Last TLE update: 20 hours ago

TLE from 20 hours ago
0 STARLINK-32184
1 60942U 24155U   26170.99888605  .00010589  00000-0  32411-3 0  9994
2 60942  53.1609  13.8338 0001277  91.0615 269.0534 15.34397675101968
Epoch: 2026-06-19T23:58Z
TLE epoch observation values (Epoch: 2026-06-19T23:58:23.754Z)
Latitude
-0.00003°
Longitude
106.01499°
Altitude
463.626 km
Speed
7.636 km/s
True Right ascension
00h 55m 20s
True Declination
0° 00' 00"
Sunlit
Object was in daylight at epoch
Visualization orbit readout
Latitude
Unknown
Longitude
Unknown
Altitude
Unknown
Speed
Unknown
Apparent Right ascension
Unknown
Apparent Declination
Unknown
Sunlit
N/A
Visualization observer readout
Local Sidereal Time
07:15:50
Azimuth
Unknown
Elevation
Unknown
Doppler factor
Unknown
Orbital elements
Apogee altitude
463.84 km
Perigee altitude
462.093 km
Semi-major axis
6,841.104 km
Eccentricity
0.00013
Inclination
53.1609°
RAAN
13.8338°
Arg. of periapsis
91.0615°
True anomaly
269.03877°
Mean anomaly
269.0534°
Eccentric anomaly
269.04608°
Mean motion
3.83578 °/min
Orbital period
93.85 mins
BSTAR
0.00032411
Loading maneuver chart data...
Computing Atmospheric mass density...
Loading historical data...
Loading historical data...
Loading historical data...
Loading historical data...
Loading historical data...
Loading historical data...
Loading historical data...

Documentation

Showing up to 5 results
|